Location: Greensted
(51.7000°N, 0.2000°E)
Time: 13:10:48
(UTC+00:00)

Daily predictions for brighter satellites

Satellite Brightness Start Highest point End
(mag) Time Altitude Azimuth Time Altitude Azimuth Time Altitude Azimuth
ATLAS 2AS CENTAUR R/B 3.8 19:20:57 10° SSE 19:27:16 27° ESE 19:33:31 10° ENE
Cosmos 1953 Rocket 4.2 19:24:42 10° N 19:28:51 39° ENE 19:32:57 10° SE
Cosmos 2034 Rocket 4.2 19:25:46 10° SSE 19:31:41 50° E 19:37:43 10° NNE
Meteor 2-10 Rocket 4.2 19:35:09 10° SSE 19:39:50 36° E 19:44:43 10° NNE
Nadezhda 4 Rocket 4.0 19:34:09 10° N 19:40:30 75° ENE 19:46:47 10° SSE
H-2A R/B 4.5 19:36:59 10° SW 19:41:00 24° W 19:44:59 10° NW
Cosmos 1464 Rocket 4.0 19:35:52 10° S 19:42:11 79° E 19:48:27 10° NNE
Resurs 1-3 3.8 19:38:41 10° SSE 19:42:58 56° ENE 19:47:18 10° N
OBJECT-B 0.8 19:39:58 10° SSE 19:43:11 90° WSW 19:46:26 10° NNW
SL-16 R/B 4.4 19:41:38 10° N 19:44:49 15° NNE 19:47:58 10° ENE
Cosmos 1825 3.4 19:42:55 10° N 19:46:10 26° ENE 19:49:06 11° SE
COSMOS 2428 3.3 19:42:36 10° NNW 19:48:07 44° NE 19:53:17 11° ESE
Cosmos 1825 Rocket 3.5 19:44:21 10° N 19:48:44 85° ENE 19:53:09 10° S
Cosmos 1300 2.9 19:47:56 10° SSW 19:51:44 77° W 19:55:34 10° N
IRS-1A Rocket 4.3 19:46:24 10° SSE 19:51:58 85° ENE 19:57:40 10° NNW
CZ-4 R/B 4.5 19:51:21 10° SW 19:53:55 16° W 19:56:30 10° NW
Lacrosse 5 rocket 1.3 19:50:11 10° SW 19:54:10 62° SE 19:58:26 10° ENE
MOS 1 4.3 19:48:54 10° SSE 19:54:33 87° ENE 20:00:15 10° NNW
Cosmos 1758 Rocket 4.2 19:51:02 10° NNW 19:55:25 61° W 19:59:49 10° S
CZ-4C R/B 2.1 19:50:45 10° SSW 19:55:41 63° SE 20:01:42 10° NE
Cosmos 2333 4.3 19:52:01 10° NNW 19:57:50 75° ENE 20:03:23 11° SE
Cosmos 2026 Rocket 4.2 19:51:56 10° N 19:57:51 51° ENE 20:03:44 10° SSE
Cosmos 2360 Rocket 2.5 19:53:52 10° NW 19:59:31 69° WSW 20:05:07 10° SSE
Cosmos 1833 4.4 19:54:45 10° S 20:00:09 49° ESE 20:05:35 10° NE
SJ-6B 3.7 20:02:47 10° S 20:06:24 48° W 20:10:02 10° NNW
CZ-2C R/B 4.1 20:03:36 10° N 20:08:25 40° WNW 20:13:14 10° SW
SL-16 R/B 4.0 20:05:45 10° NW 20:10:34 29° WSW 20:15:22 10° SSW
COSMOS 2487 3.3 20:08:04 10° SSE 20:10:58 28° ESE 20:13:56 10° NE
Cosmos 1634 Rocket 4.3 20:05:03 10° SSE 20:11:00 47° E 20:16:57 10° NNE
CENTAUR R/B 4.1 20:04:18 10° NW 20:11:55 46° WSW 20:20:12 10° S
ATLAS 3B R/B 2.9 20:08:05 10° NW 20:15:01 68° NE 20:20:51 17° ESE
USA 215 3.4 20:09:26 14° SE 20:15:13 70° SW 20:21:47 10° WNW
ARIANE 5 R/B 3.6 20:14:35 17° ESE 20:17:14 32° ENE 20:21:09 10° N
Cosmos 2058 3.1 20:13:17 10° N 20:17:27 53° ENE 20:20:27 17° SSE
Terra 3.5 20:15:13 13° E 20:17:46 19° ENE 20:21:05 10° NNE
ERS-1 Rocket 4.2 20:15:27 16° ESE 20:18:27 27° ENE 20:22:37 10° N
Cosmos 2219 Rocket 2.2 20:13:20 10° NNW 20:19:05 76° ENE 20:23:33 17° SE
Cosmos 1408 2.6 20:21:26 10° NNW 20:25:02 77° W 20:28:10 13° S
Exosat Rocket 4.1 20:18:47 10° NNW 20:26:17 76° ENE 20:30:27 19° SE
SPOT 1/Viking Rocket 3.8 20:22:47 18° SE 20:26:35 53° ENE 20:31:40 10° N
Cosmos 405 Rocket 3.4 20:22:58 10° N 20:26:50 40° ENE 20:28:48 24° SE
Orbus 7S? 4.0 20:24:51 10° S 20:27:32 30° SE 20:32:11 10° ENE
Cosmos 1455 2.2 20:24:28 11° S 20:28:00 57° E 20:31:42 10° NNE
Cosmos 1356 4.2 20:25:20 10° N 20:28:30 34° ENE 20:29:40 26° ESE
BREEZE-M DEB (TANK) 4.2 20:26:11 10° SW 20:29:33 52° SSE 20:38:42 10° ENE
RESURS DK-1 3.5 20:30:11 23° ESE 20:30:15 23° ESE 20:33:30 10° NE
Cosmos 1606 Rocket 4.1 20:26:22 10° SSW 20:30:43 62° WNW 20:35:03 10° N
SPOT 3 Rocket 3.6 20:26:51 12° SSE 20:31:41 88° WSW 20:36:55 10° NNW
Cosmos 405 2.8 20:29:03 10° S 20:32:30 73° E 20:35:59 10° NNE
BREEZE M DEB (TANK) 3.5 20:25:36 10° SW 20:33:49 34° SSE 20:35:25 25° ESE
Spot 2 Rocket 3.8 20:31:08 21° SE 20:34:18 49° ENE 20:39:13 10° N
Cosmos 2251 Rocket 4.1 20:32:43 15° SSE 20:36:36 36° ESE 20:41:26 10° NE
Cosmos 2098 Rocket 4.5 20:30:59 10° NNW 20:37:33 74° W 20:44:54 10° S
Cosmos 2237 Rocket 2.9 20:34:13 10° NNW 20:39:37 42° NE 20:42:52 22° ESE
ATLAS 5 CENTAUR R/B 2.5 20:35:53 10° WSW 20:39:54 50° NW 20:44:34 10° NE
IGS 5A 3.5 20:37:33 17° S 20:40:39 81° WSW 20:44:50 10° NNW
Cosmos 389 Rocket 3.6 20:42:04 25° E 20:42:04 25° E 20:44:56 10° NE
Cosmos 1726 Rocket 4.1 20:38:30 10° SSW 20:42:50 59° WNW 20:47:11 10° N
USA 245 3.4 20:42:42 26° SSE 20:45:06 65° ENE 20:48:44 10° N
CZ-2C R/B 3.6 20:44:11 10° NNE 20:48:38 61° ESE 20:51:48 18° S
Landsat 7 3.9 20:46:03 18° S 20:49:36 77° WSW 20:54:25 10° NNW
Cosmos 2333 Rocket 2.7 20:47:11 10° NW 20:52:52 59° WSW 20:56:57 19° S
Meteor 2-1 Rocket 4.2 20:50:13 10° S 20:55:59 75° E 21:01:54 10° NNE
Resurs 01 Rocket 2.5 20:54:28 13° S 20:58:14 47° W 21:02:34 10° NNW
Cosmos 2058 Rocket 3.4 20:53:56 10° SSW 20:58:16 66° WNW 21:02:37 10° N
Cosmos 2227 Rocket 3.9 21:00:02 15° E 21:00:02 15° E 21:02:17 10° ENE
SeaSat 1 4.5 20:57:08 10° ENE 20:58:00 12° ENE 20:58:00 12° ENE
NOSS 3-4 (A) 3.5 20:57:43 10° SW 21:03:36 81° NW 21:10:03 10° NE
NOSS 3-4 (C) 3.5 20:57:47 10° SW 21:03:42 82° NW 21:10:11 10° NE
SL-8 R/B 4.0 21:01:08 10° W 21:05:49 50° SSW 21:07:14 37° SE
Cosmos 2297 Rocket 3.4 21:07:23 23° E 21:07:23 23° E 21:11:12 10° NE
Cosmos 192 4.4 21:03:37 10° NNW 21:08:37 71° ENE 21:10:31 37° SE
Cosmos-2242 3.7 21:14:49 34° E 21:14:51 35° E 21:18:48 10° NNE
Meteor 2-3 Rocket 3.9 21:11:29 10° N 21:17:15 60° ENE 21:19:28 36° SE
ATLAS 2AS CENTAUR R/B 3.0 21:09:32 10° SW 21:17:29 86° SE 21:25:15 10° NE
IRIDIUM 104 4.3 21:15:40 23° S 21:18:59 86° W 21:24:14 10° N
Cosmos 1818 3.8 21:17:27 29° S 21:19:47 47° ESE 21:25:01 10° NE
Cosmos 1812 Rocket 3.5 21:19:21 45° SSE 21:20:35 67° E 21:25:02 10° NNE
Cosmos 1825 3.8 21:18:18 10° NNW 21:21:39 30° W 21:23:54 17° SW
Cosmos 1633 2.3 21:21:26 10° N 21:25:05 82° E 21:25:18 76° SE
SPOT 5 2.6 21:24:54 48° SSE 21:26:09 82° ENE 21:30:49 10° NNW
H-2A R/B 4.1 21:22:33 10° NNE 21:26:09 38° E 21:26:09 38° E
IRIDIUM 114 4.5 21:24:47 23° SSW 21:28:08 74° W 21:33:24 10° N
Cosmos 2344 3.4 21:21:06 10° SSW 21:28:30 75° SE 21:36:36 10° NE
Cosmos 1766 Rocket 4.1 21:26:29 10° N 21:30:36 41° ENE 21:30:54 40° E
SL-16 R/B 3.0 21:25:14 10° NNW 21:30:36 40° NE 21:32:47 29° E
USA-17 4.4 21:27:11 10° SW 21:30:44 72° NW 21:33:47 10° NE
COSMOS 2428 3.6 21:27:02 10° NW 21:32:24 42° WSW 21:35:20 24° SSW
Genesis I 4.0 21:29:06 10° NW 21:32:54 41° NE 21:33:36 38° ENE
Lacrosse 5 rocket 2.3 21:29:26 10° W 21:33:30 49° NNW 21:37:47 10° ENE
Cosmos 1980 3.6 21:28:17 10° NNW 21:34:00 87° WSW 21:35:57 43° SSE
Meteor 2-21 4.4 21:28:19 10° NNW 21:34:24 80° W 21:37:17 33° S
Cosmos 2279 Rocket 4.1 21:31:18 15° SSW 21:36:32 73° WNW 21:42:46 10° N
CARTOSAT-1 3.9 21:35:17 41° SSW 21:36:33 60° WSW 21:40:52 10° NNW
Cosmos 1076 Rocket 4.3 21:33:06 10° NNW 21:37:18 46° W 21:38:59 30° SSW
NOSS 0 Rocket 4.2 21:33:40 10° NW 21:39:48 62° WSW 21:42:20 35° S
CZ-4C R/B 3.5 21:39:25 10° W 21:44:32 42° NNW 21:50:46 10° NE
Cosmos 2151 3.2 21:41:42 10° NNW 21:45:59 66° W 21:46:47 53° SSW
Cosmos 909 Rocket 3.9 21:40:14 10° SSW 21:46:32 80° SE 21:53:05 10° NE
Cosmos 614 Rocket 3.8 21:45:13 33° SSW 21:47:35 89° ESE 21:52:44 10° NNE
Cosmos 407 Rocket 3.5 21:47:24 53° ESE 21:47:36 53° ESE 21:52:37 10° NNE
Cosmos 1869 4.4 21:48:43 32° ENE 21:48:43 32° ENE 21:51:25 10° NNE
Timation 2 Rocket 4.5 21:47:57 40° ESE 21:48:18 40° ESE 21:54:10 10° NE
Cosmos 44 3.3 21:47:36 24° SSW 21:50:49 79° SE 21:56:15 10° NE
ARIANE 5 R/B 3.8 21:52:07 28° SW 21:53:38 36° W 21:57:44 10° NNW
Terra 1.8 21:54:06 58° S 21:54:59 77° WSW 21:59:48 10° NNW
ERS-1 Rocket 3.4 21:55:27 39° SSW 21:56:58 55° W 22:01:55 10° NNW
BREEZE-M DEB (TANK) 3.4 21:49:01 10° W 21:58:40 62° SSW 21:58:54 61° S
Cosmos 2266 Rocket 4.2 21:52:55 10° NNW 21:59:19 71° W 22:01:54 38° SSW
Cosmos 2219 Rocket 4.0 21:58:10 10° NW 22:02:27 22° WSW 22:05:18 15° SW
ATLAS 3B R/B 3.6 21:59:04 10° NW 22:05:29 39° WSW 22:08:06 30° SSW
RESURS DK-1 3.2 22:05:55 26° WSW 22:07:59 50° NW 22:12:03 10° NNE
CRYOSAT 2 4.2 22:14:45 78° SSE 22:15:04 85° E 22:20:01 10° N
Cosmos 389 Rocket 4.3 22:15:50 25° W 22:16:32 27° WNW 22:19:37 10° N
Cosmos 1023 Rocket 4.2 22:18:10 77° S 22:18:30 83° ESE 22:23:37 10° NNE
Meteor 2-8 Rocket 4.3 22:20:57 56° S 22:22:24 86° E 22:28:34 10° NNE
Cosmos 1140 Rocket 3.3 22:22:47 77° SSW 22:23:11 87° ESE 22:28:21 10° NNE
Spot 4 4.2 22:23:17 52° ENE 22:23:22 52° ENE 22:28:06 10° N
Cosmos 2237 Rocket 2.8 22:18:25 10° NW 22:23:44 43° WSW 22:24:42 39° SW
Cosmos 1862 4.2 22:19:49 10° N 22:22:50 44° NNE 22:22:50 44° NNE
ATLAS 5 CENTAUR R/B 4.1 22:22:00 10° WNW 22:25:37 23° N 22:29:42 10° NE
Cosmos 1244 Rocket 4.4 22:21:57 10° N 22:28:22 82° E 22:29:36 60° SSE
Cosmos 468 Rocket 3.9 22:30:48 10° NNW 22:35:57 72° ENE 22:36:03 72° ENE
Cosmos 2082 4.3 22:37:38 40° E 22:37:38 40° E 22:41:55 10° NE
Cosmos 1190 Rocket 3.9 22:36:43 75° SW 22:37:09 84° WNW 22:42:25 10° NNE
SeaSat 1 2.4 22:33:07 10° NNE 22:37:46 75° ENE 22:37:46 75° ENE
Cosmos 1408 Rocket 3.8 22:33:53 10° NNW 22:37:36 64° NNW 22:37:36 64° NNW
SL-08 R/B 4.4 22:34:15 10° N 22:40:24 74° ENE 22:41:14 65° SE
Cosmos 2227 Rocket 2.0 22:41:47 78° S 22:42:08 83° ESE 22:47:50 10° NNE
Cosmos 1553 Rocket 3.9 22:44:59 60° ESE 22:45:20 61° E 22:51:20 10° NNE
Cosmos 2219 3.1 22:45:46 66° SW 22:46:35 82° WNW 22:52:15 10° NNE
Cosmos 841 Rocket 4.0 22:41:37 10° NNW 22:46:42 46° ENE 22:47:03 46° ENE
COSMOS 2455 3.4 22:49:02 42° E 22:49:02 42° E 22:53:40 10° NE
Cosmos 2263 Rocket 4.0 22:49:57 18° ENE 22:49:57 18° ENE 22:52:12 10° NE
USA 229 DEB 4.2 22:42:39 10° NW 22:49:43 59° NE 22:53:15 32° E
USA 229 4.2 22:42:45 10° NW 22:49:49 59° NE 22:53:23 32° E
Cosmos 2297 Rocket 2.3 22:49:07 54° WSW 22:50:22 73° WNW 22:56:04 10° NNE
Cosmos 1743 Rocket 4.1 22:46:10 10° N 22:49:42 55° NNE 22:49:42 55° NNE
Cosmos 921 Rocket 4.2 22:47:42 10° N 22:51:31 36° NE 22:51:31 36° NE
Cosmos 676 Rocket 3.9 22:53:55 78° NE 22:53:55 78° NE 22:58:48 10° NNE
Meteor 2-15 Rocket 4.3 22:59:53 72° SSW 23:00:35 86° W 23:06:43 10° N
Sich 1 4.2 22:57:19 10° N 23:00:28 36° NE 23:00:28 36° NE
Meteor 1-4 Rocket 4.5 23:03:15 27° NNW 23:03:15 27° NNW 23:05:15 10° N
Cosmos 1763 Rocket 3.5 22:57:19 10° NNW 23:02:01 71° WNW 23:02:01 71° WNW
Meteor 2-2 Rocket 4.1 23:02:38 81° S 23:02:57 90° ESE 23:08:45 10° NNE
ALOS 2 3.2 23:04:12 53° NNE 23:04:12 53° NNE 23:07:45 10° N
Timation 1 Rocket 4.3 23:05:30 70° ESE 23:05:30 70° ESE 23:11:15 10° NE
NOSS 3-1 (A) 4.2 23:00:23 10° NW 23:07:29 65° NE 23:11:15 34° ESE
ATLAS 2AS CENTAUR R/B 4.1 23:01:48 10° W 23:09:16 43° NNW 23:16:27 10° NE
Cosmos 1500 Rocket 4.2 23:07:09 10° NNW 23:10:44 54° NW 23:10:44 54° NW
Lacrosse 5 rocket 2.6 23:09:09 10° WNW 23:13:16 42° N 23:13:54 40° NNE
SL-16 R/B 2.7 23:09:25 10° NW 23:14:39 47° WSW 23:14:39 47° WSW
Cosmos 2221 3.4 23:17:57 47° NNW 23:17:57 47° NNW 23:21:15 10° N
USA 281 3.4 23:22:55 49° ESE 23:24:30 63° NE 23:31:00 10° NNW
Thor Agena Rocket 4.4 23:20:57 10° NNE 23:24:51 39° ENE 23:24:51 39° ENE
Cosmos 1741 Rocket 4.3 23:31:07 58° ENE 23:31:07 58° ENE 23:35:34 10° NNE
Cosmos 540 Rocket 3.7 23:28:20 10° NNW 23:32:46 64° NW 23:32:46 64° NW
Terra 4.3 23:32:59 11° W 23:33:34 12° W 23:35:16 10° WNW
CZ-4C R/B 4.4 23:29:27 10° WNW 23:34:41 29° N 23:40:52 10° ENE
Cosmos 2208 Rocket 4.2 23:29:47 10° NNW 23:34:55 67° NE 23:34:55 67° NE
NOSS 3-1 (C) 3.9 23:28:47 10° NW 23:36:05 77° SW 23:37:38 61° SSE
Cosmos 1850 Rocket 4.2 23:39:06 65° NE 23:39:06 65° NE 23:43:37 10° NNE
Cosmos 1745 Rocket 4.2 23:37:49 10° NNW 23:44:02 58° W 23:44:29 57° WSW
Cosmos 1943 3.1 23:42:50 10° NNW 23:48:13 81° NW 23:48:13 81° NW
COBE Rocket 4.2 23:49:49 60° NNW 23:49:49 60° NNW 23:53:47 10° NNW
Cosmos 1709 Rocket 3.8 23:44:13 10° NNW 23:50:31 83° W 23:50:48 80° SW
